TimeEST,TemperatureF,Dew PointF,Humidity,Sea Level PressureIn,VisibilityMPH,Wind Direction,Wind SpeedMPH,Gust SpeedMPH,PrecipitationIn,Events,Conditions,WindDirDegrees,DateUTC
12:53 AM,25.0,16.0,69,30.07,10.0,WNW,6.9,-,N/A,,Overcast,300,2013-03-03 05:53:00
1:53 AM,25.0,16.0,69,30.07,10.0,NW,10.4,-,0.00,,Overcast,310,2013-03-03 06:53:00
2:53 AM,24.1,16.0,71,30.05,10.0,NW,8.1,-,N/A,,Overcast,310,2013-03-03 07:53:00
3:53 AM,24.1,16.0,71,30.04,8.0,NW,8.1,-,0.00,,Overcast,310,2013-03-03 08:53:00
4:53 AM,24.1,16.0,71,30.04,10.0,WNW,6.9,-,0.00,,Overcast,290,2013-03-03 09:53:00
5:53 AM,21.9,15.1,75,30.05,10.0,WNW,9.2,-,N/A,,Overcast,300,2013-03-03 10:53:00
7:53 AM,19.0,10.9,71,30.07,10.0,NW,8.1,-,N/A,,Partly Cloudy,320,2013-03-03 12:53:00
8:53 AM,21.9,12.0,66,30.07,10.0,NW,10.4,-,N/A,,Clear,320,2013-03-03 13:53:00
9:53 AM,25.0,12.9,60,30.06,10.0,NW,10.4,-,N/A,,Partly Cloudy,320,2013-03-03 14:53:00
10:41 AM,26.6,14.0,59,30.03,10.0,NW,13.8,-,N/A,,Mostly Cloudy,320,2013-03-03 15:41:00
10:48 AM,26.6,12.2,55,30.03,10.0,NW,9.2,-,N/A,,Scattered Clouds,310,2013-03-03 15:48:00
10:53 AM,26.1,14.0,60,30.05,10.0,West,12.7,-,N/A,,Mostly Cloudy,280,2013-03-03 15:53:00
11:53 AM,27.0,14.0,58,30.05,10.0,WNW,15.0,19.6,N/A,,Overcast,290,2013-03-03 16:53:00
12:35 PM,28.4,14.0,55,30.02,10.0,WNW,15.0,21.9,N/A,,Overcast,290,2013-03-03 17:35:00
12:53 PM,28.9,14.0,54,30.03,10.0,WNW,9.2,-,0.01,,Overcast,300,2013-03-03 17:53:00
1:53 PM,30.9,14.0,50,30.01,10.0,WNW,11.5,-,N/A,,Scattered Clouds,290,2013-03-03 18:53:00
2:53 PM,30.9,14.0,50,30.00,10.0,WNW,13.8,-,N/A,,Clear,300,2013-03-03 19:53:00
3:53 PM,30.9,14.0,50,30.00,10.0,WNW,13.8,21.9,N/A,,Partly Cloudy,300,2013-03-03 20:53:00
4:53 PM,30.9,15.1,52,30.01,10.0,WNW,10.4,-,N/A,,Mostly Cloudy,300,2013-03-03 21:53:00
5:53 PM,28.9,15.1,56,30.03,10.0,NNW,9.2,-,N/A,,Clear,330,2013-03-03 22:53:00
6:53 PM,27.0,14.0,58,30.05,10.0,North,4.6,-,N/A,,Clear,10,2013-03-03 23:53:00
7:53 PM,24.1,14.0,65,30.06,10.0,Calm,Calm,-,N/A,,Clear,0,2013-03-04 00:53:00
8:53 PM,23.0,12.9,65,30.07,10.0,Calm,Calm,-,N/A,,Clear,0,2013-03-04 01:53:00
9:53 PM,21.9,12.9,68,30.07,10.0,Calm,Calm,-,N/A,,Clear,0,2013-03-04 02:53:00
10:53 PM,19.9,12.0,71,30.06,10.0,WSW,3.5,-,N/A,,Clear,240,2013-03-04 03:53:00
11:53 PM,19.9,12.0,71,30.07,10.0,Calm,Calm,-,N/A,,Clear,0,2013-03-04 04:53:00